Airfield :
LOGIN :

Register | Disclaimer

   EN    FR    IT 

 










Legend :    VFR   Marginal VFR   IFR   Intensive IFR   Very Intensive IFR
Visi :
Ceiling :
>= 8 km
>= 3000ft
5 to 8 km
1000 to 3000 ft
1500m to 5 km
500 to 1000 ft
800 to 1500m
200 to 500 ft
< 800m
< 200 ft
Symbols :   Thunderstorms  Fog  Heavy snow  Heavy precipitations  Wind > 20 kt
SIGMETs :     Misc.  Thunderstorms  Icing  Turbulence  Mountain Waves  Volcanic Ashes







- Airport Elevation : 2077 ft
- IATA code : FMM


EDJA - Memmingen

CURRENT METAR :
  • 190850Z 22005KT 170V260 9999 SCT017 15/10 Q1004

EXPIRED METARs :
  • 190820Z 28005KT 230V320 9999 FEW017 14/10 Q1004
  • 190750Z 27006KT 9999 FEW045 13/09 Q1004
  • 190720Z 26006KT 220V280 CAVOK 12/10 Q1004
  • 190650Z 23007KT 9999 FEW019 12/10 Q1004
  • 190620Z 22007KT 9999 FEW017 11/09 Q1005

TAF TAF EDJA
Valid from the 19 at 09:00 until the 19 at 18:00 UTC


190800Z 1909/1918 29005KT 9999 FEW045
PROB40
TEMPO 1914/1918 TSRA BKN030CB
No reported NOTAMs for that airfield.



MET'MAP, your aeronautical weather chart ! - Copyright ORBIFLY December 2007 - Disclaimer

ORBIFLY MET'MAP TEAM :

Programming & Development : Alexandra Zaïnal
Concept & Development : Baudouin d'Aumeries
Co-Development & Prog : Marc-Olivier Méhu
Technical & hardware support : Manuel Goepfert

Contact : metmap@orbifly.com




SOURCES & CREDITS :

   NOAA